Charlotte, NC

10:26 PM EDT on April 24, 2017 (GMT -0400)
Charlotte-Douglas International

Weather History for KCLT - March, 2012

Change the Weather History Date:

Wednesday, March 28, 2012

  Actual Average Record
Temperature  
Mean Temperature 62 °F 54 °F  
Max Temperature 76 °F 67 °F 90 °F (1907)
Min Temperature 48 °F 42 °F 25 °F (1982)
Degree Days  
Heating Degree Days 3 11  
Month to date heating degree days 168 403  
Since 1 July heating degree days 2430 3102  
Cooling Degree Days 0 0  
Month to date cooling degree days 48 0  
Year to date cooling degree days 48 0  
Growing Degree Days 12 (Base 50)    
Moisture  
Dew Point 51 °F    
Average Humidity 71    
Maximum Humidity 93    
Minimum Humidity 49    
Precipitation  
Precipitation 0.00 in 0.13 in 1.95 in (1980)
Month to date precipitation 3.43 3.64  
Year to date precipitation 7.01 10.37  
Snow  
Snow 0.00 in 0.00 in T in (1947)
Month to date snowfall 0.0 0.6  
Since 1 July snowfall T 4.3  
Snow Depth 0.00 in    
Sea Level Pressure  
Sea Level Pressure 30.10 in    
Wind  
Wind Speed 10 mph (SSW)    
Max Wind Speed 18 mph    
Max Gust Speed 23 mph    
Visibility 10 miles    
Events      
T = Trace of Precipitation, MM = Missing Value Source: NWS Daily Summary

Daily Weather History Graph

Daily Weather History Graph

Search for Another Location

Airport or City:

Trip Planner

Search our weather history database for the weather conditions in past years. The results will help you decide how hot, cold, wet, or windy it might be!

Date:

Astronomy

Mar. 28, 2012 Rise Set
Actual Time 7:15 AM EDT 7:42 PM EDT
Civil Twilight 6:49 AM EDT 8:07 PM EDT
Nautical Twilight 6:20 AM EDT 8:37 PM EDT
Astronomical Twilight 5:49 AM EDT 9:08 PM EDT
Moon 10:42 AM EDT (3/28) 12:32 AM EDT (3/28)
Length of Visible Light 13h 17m
Length of Day
12h 26m
Waxing Crescent, 30% of the Moon is Illuminated
Mar 28
Waxing Crescent
Mar 30
First Quarter
Apr 6
Full
Apr 13
Last Quarter
Apr 21
New

Hourly Weather History & Observations

Time (EDT) Temp. Dew Point Humidity Pressure Visibility Wind Dir Wind Speed Gust Speed Precip Events Conditions
12:52 AM 51.1 °F 36.0 °F 56% 30.24 in 10.0 mi SSE 5.8 mph - N/A   Partly Cloudy
1:52 AM 50.0 °F 35.1 °F 57% 30.23 in 10.0 mi South 8.1 mph - N/A   Partly Cloudy
2:52 AM 48.9 °F 37.0 °F 64% 30.22 in 10.0 mi South 6.9 mph - N/A   Partly Cloudy
3:52 AM 48.0 °F 39.9 °F 74% 30.21 in 10.0 mi South 5.8 mph - N/A   Partly Cloudy
4:52 AM 51.1 °F 42.1 °F 71% 30.19 in 10.0 mi South 5.8 mph - N/A   Partly Cloudy
4:59 AM 51.8 °F 42.8 °F 71% 30.20 in 10.0 mi South 6.9 mph - N/A   Overcast
5:52 AM 53.1 °F 44.1 °F 71% 30.19 in 10.0 mi South 10.4 mph - N/A   Overcast
6:52 AM 54.0 °F 48.0 °F 80% 30.20 in 10.0 mi SSW 9.2 mph - N/A   Overcast
7:52 AM 54.0 °F 48.9 °F 83% 30.19 in 10.0 mi SSW 9.2 mph - N/A   Overcast
8:50 AM 55.4 °F 51.8 °F 88% 30.21 in 7.0 mi SW 11.5 mph 17.3 mph N/A   Overcast
8:52 AM 55.0 °F 51.1 °F 86% 30.21 in 7.0 mi SW 10.4 mph 17.3 mph N/A   Overcast
9:23 AM 55.4 °F 51.8 °F 88% 30.20 in 8.0 mi SSW 8.1 mph - N/A   Overcast
9:52 AM 55.9 °F 53.1 °F 90% 30.19 in 8.0 mi SSW 10.4 mph - N/A   Overcast
10:52 AM 59.0 °F 55.0 °F 87% 30.17 in 10.0 mi SW 10.4 mph 19.6 mph N/A   Overcast
11:11 AM 60.8 °F 55.4 °F 82% 30.17 in 10.0 mi SW 15.0 mph 19.6 mph N/A   Overcast
11:45 AM 62.6 °F 55.4 °F 77% 30.15 in 10.0 mi SSW 15.0 mph 23.0 mph N/A   Overcast
11:52 AM 62.1 °F 55.0 °F 78% 30.14 in 10.0 mi SW 16.1 mph 23.0 mph N/A   Overcast
12:52 PM 64.0 °F 55.9 °F 75% 30.11 in 10.0 mi SSW 16.1 mph - N/A   Overcast
1:10 PM 64.4 °F 55.4 °F 73% 30.11 in 10.0 mi SW 12.7 mph 21.9 mph N/A   Overcast
1:47 PM 66.2 °F 57.2 °F 73% 30.08 in 10.0 mi SW 9.2 mph 18.4 mph N/A   Scattered Clouds
1:52 PM 66.9 °F 57.0 °F 70% 30.07 in 10.0 mi SSW 11.5 mph - N/A   Partly Cloudy
2:52 PM 70.0 °F 57.0 °F 63% 30.03 in 10.0 mi SW 9.2 mph 19.6 mph N/A   Mostly Cloudy
3:52 PM 71.1 °F 57.0 °F 61% 29.99 in 10.0 mi WSW 16.1 mph 21.9 mph N/A   Overcast
4:52 PM 73.9 °F 57.9 °F 57% 29.95 in 10.0 mi SW 12.7 mph 19.6 mph N/A   Mostly Cloudy
5:52 PM 75.9 °F 57.0 °F 52% 29.92 in 10.0 mi WSW 11.5 mph 18.4 mph N/A   Scattered Clouds
6:52 PM 75.9 °F 55.9 °F 50% 29.90 in 10.0 mi SW 13.8 mph 20.7 mph N/A   Mostly Cloudy
7:52 PM 73.0 °F 55.0 °F 53% 29.91 in 10.0 mi SW 9.2 mph - N/A   Mostly Cloudy
8:52 PM 72.0 °F 53.1 °F 51% 29.92 in 10.0 mi SW 8.1 mph - N/A   Partly Cloudy
9:52 PM 71.1 °F 52.0 °F 51% 29.94 in 10.0 mi SW 8.1 mph - N/A   Clear
10:52 PM 70.0 °F 52.0 °F 53% 29.93 in 10.0 mi WSW 10.4 mph - N/A   Partly Cloudy
11:52 PM 69.1 °F 51.1 °F 53% 29.92 in 10.0 mi WSW 6.9 mph - N/A   Partly Cloudy